Weather in Paleh

Russia / Ivanovo Oblast     56°48′06″N   41°51′09″E
temp.,
°C
wind,
m/s
gust,
m/s
humid.,
%
clouds,
%
prec.,
mm/h
press.,
hPa
HPBL,
m
6 march, sat
sat600:00−15wnw22930 0.0 101220
03:00−15w23920 0.0 101428
06:00−15wsw239414 0.0 101432
09:00−12wnw259435 0.0 1015236
12:00−8wnw238185 0.0 1015443
15:00−7wnw247644 0.0 1014840
18:00−10wnw2292100 0.1 101339
21:00−14wsw229453 0.1 101320
7 march, sun
sun700:00−14sw23975 0.0 101137
03:00−15ssw37955 0.0 1009143
06:00−12s4129160 0.0 1005349
09:00−8ssw6139380 0.3 1001823
12:00−7ssw61191100 0.9 996872
15:00−4s61193100 2.0 992888
18:00−4s51195100 1.6 989786
21:00−7w41285100 2.6 9901246
8 march, mon
mon800:00−10wsw5148743 0.0 990739
03:00−10wsw6148271 0.1 991513
06:00−11wsw51483100 0.0 992575
09:00−10wnw51093100 0.3 993564
12:00−7nw5788100 0.5 996852
15:00−8nw5888100 0.8 999842
18:00−10nnw41092100 0.2 1003675
21:00−12nnw399497 0.3 1007372
9 march, tue
tue900:00−16nw379669 0.0 1009160
03:00−20nw369841 0.0 1012134
06:00−22nnw25980 0.0 1014130
09:00−19nnw35937 0.0 1016259
12:00−16nw358778 0.0 1016503
15:00−15nw468589 0.0 1017615
18:00−19nw2595100 0.0 101889
21:00−22nnw239880 0.0 102180
10 march, wed
wed1000:00−24nnw239829 0.0 102248
03:00−26nnw239814 0.0 102342
06:00−27nnw22970 0.0 102425
09:00−23n23910 0.0 1025214
12:00−17n128022 0.0 1025426
15:00−15nnw228054 0.0 1024609
18:00−19nnw129274 0.0 102420
21:00−22nnw119542 0.0 102620